Back to catalog

STARLINK-36808

AliveCommunicationsSSO
NORAD 67881·PAYLOAD·🇺🇸 United States

Launched Feb 21, 2026 from Vandenberg Space Force Base

Loading…

Next Passes (next 24 hours)

TLE

FreshSource: CelesTrak SupGP

Epoch: Sep 14, 2026, 15:32 UTC

1 67881C 26035C   26257.64770833 -.00005359  00000+0 -16634-3 0  2579
2 67881  97.2848 189.6114 0002162  89.9444  70.1439 15.33441181    15

Track STARLINK-36808 in real time with AllMySat

Download on the App Store